Weather Roundup
Issued by NWS Springfield, MO

Home | Current Version | Previous Version | Text Only | Print | Product List | Glossary Off
Versions: 1 2 3 4 5 6 7 8 9 10 11 12 13 14 15 16 17 18 19 20 21 22 23 24 25 26 27 28 29 30 31 32 33 34 35 36 37 38 39 40 41 42 43 44 45 46 47 48 49 50

000
NZUS99 KSGF 250307
HRRSGF

HOURLY WEATHER
NATIONAL WEATHER SERVICE SPRINGFIELD MO
1000 PM CDT SAT JUN 24 2017

......SGF CWA......

CITY           SKY/WX    TMP DP  RH WIND       PRES   REMARKS
SPRINGFIELD    CLEAR     65  55  70 CALM      30.22R
JOPLIN         PTCLDY    65  55  70 NE3       30.22R
WEST PLAINS    PTCLDY    68  50  52 CALM      30.22R
ROLLA          CLEAR     59  49  69 CALM      30.20R
OSAGE BEACH    CLEAR     62  53  72 CALM      30.21R
BRANSON        CLEAR     63  55  77 CALM      30.24R

......SURROUNDING SGF CWA......

CITY           SKY/WX    TMP DP  RH WIND       PRES   REMARKS
CHANUTE        PTCLDY    67  48  50 E3        30.21R
PARSONS        PTCLDY    62  54  74 CALM      30.22R
COFFEYVILLE    CLEAR     69  53  56 E5        30.21R
EMPORIA        CLEAR     67  49  52 E7        30.21R
GROVE OK       CLEAR     68  59  73 CALM      30.23R
ROGERS AR      CLOUDY    68  57  68 CALM      30.24R
SILOAM SPRINGS CLOUDY    72  52  49 NE5       30.22R
HARRISON AR    CLOUDY    67  54  63 NW3       30.23R
NEAR YELLVILLE PTCLDY    66  57  72 CALM      30.18R

......KANSAS AND MISSOURI......

CITY           SKY/WX    TMP DP  RH WIND       PRES   REMARKS
KANSAS CTY INT MOCLDY    67  50  54 SW5       30.18R
DOWNTOWN KC    PTCLDY    73  47  39 SW6       30.17R
COLUMBIA       CLOUDY    66  54  65 S3        30.18R
SEDALIA        MOCLDY    67  51  56 SW6       30.19R
ST JOSEPH      CLOUDY    69  51  52 W7        30.16R
ST LOUIS       PTCLDY    70  46  42 SW3       30.18R
SPIRIT OF STL  PTCLDY    63  52  67 CALM      30.17R
KIRKSVILLE     CLEAR     65  47  52 SW5       30.14R
WICHITA        PTCLDY    73  55  53 SE9       30.20R
TOPEKA         CLOUDY    71  57  61 CALM      30.18R
OLATHE         CLOUDY    69  52  54 CALM      30.19R

......TENNESSEE......

CITY           SKY/WX    TMP DP  RH WIND       PRES   REMARKS
MEMPHIS        MOCLDY    73  61  65 N6        30.15R
NASHVILLE      MOCLDY    73  59  61 N6        30.14R

......ARKANSAS.......

CITY           SKY/WX    TMP DP  RH WIND       PRES   REMARKS
FAYETTEVILLE   CLOUDY    64  59  83 CALM      30.22R
FT SMITH       CLOUDY    76  63  64 E3        30.18R
LITTLE ROCK    MOCLDY    73  62  68 CALM      30.17R

......OKLAHOMA.......

CITY           SKY/WX    TMP DP  RH WIND       PRES   REMARKS
TULSA          PTCLDY    73  57  57 E5        30.18R
PONCA CITY     CLEAR     74  55  51 E8        30.20R
MCALESTER      PTCLDY    70  61  73 CALM      30.19R
OKLAHOMA CITY  MOCLDY    77  54  44 SE9       30.20R

......IOWA............

CITY           SKY/WX    TMP DP  RH WIND       PRES   REMARKS
DES MOINES     CLEAR     69  42  37 N9G18     30.12R
QUAD CITIES    MOCLDY    63  54  72 W5        30.07R

......ILLINOIS........

CITY           SKY/WX    TMP DP  RH WIND       PRES   REMARKS
QUINCY         CLEAR     62  51  67 S6        30.13R
CHICAGO        MOCLDY    65  45  48 NW8       30.05R




USA.gov is the U.S. government's official web portal to all federal, state and local government web resources and services.